User: anonymous   Login
Location: Katowice
(50.2611°N, 19.0242°E)
Time: 09:42:38
(UTC+02:00)
Language:

deb Explorer IX - Orbit

View from above orbital plane
View from above orbital plane
View from above satellite
View from above satellite

Ground track
Ground track

The orbit data is extracted from the following two-line orbital elements,

1    85U 61004C   20222.79678701 +.00004531 +00000-0 +97171-3 0  9998
2    85 038.7707 108.8984 0389183 136.8122 226.3841 14.20987058938662
Epoch (UTC): 09 August 2020 19:07:22
Eccentricity: 0.0389183
inclination: 38.7707°
perigee height: 542 km
apogee height: 1102 km
right ascension of ascending node: 108.8984°
argument of perigee: 136.8122°
revolutions per day: 14.20987058
mean anomaly at epoch: 226.3841°
orbit number at epoch: 93866

The dashed part of the orbit path shows where the satellite is in the earth's shadow,  

DLR